PP5CI-13 Weather Reports


time (UTC)temp
C
wind
direction
speed
KPH
gust
KPH
rain 1hr
cm
rain 24hr
cm
rain mn
cm
humidity
%
barometer
mb
20260508004524 23 158 0.0 1.6 0.00 0.00 0.00 99 1009.2
20260508003525 23 0.0 0.0 0.00 0.00 0.00 99 1009.2
20260508002525 23 0.0 0.0 0.00 0.00 0.00 99 1009.2
20260508001524 23 0.0 0.0 0.00 0.00 0.00 99 1009.2
20260508000525 23 0.0 0.0 0.00 0.00 0.00 99 1009.2
20260507235524 23 0.0 0.0 0.00 0.00 0.00 99 1009.2
20260507234524 23 0.0 0.0 0.00 0.00 0.00 99 1009.2
20260507233525 23 121 1.6 3.2 0.00 0.00 0.00 98 1009.2
20260507232600 24 0.0 0.0 0.00 0.00 0.00 98 1009.2
20260507230537 24 0.0 0.0 0.00 0.00 0.00 98 1009.2
20260507225525 24 0.0 0.0 0.00 0.00 0.00 98 1009.2
20260507224525 24 133 1.6 4.8 0.00 0.00 0.00 98 1009.2
20260507223525 24 127 3.2 4.8 0.00 0.00 0.00 97 1009.2
20260507222525 24 113 3.2 4.8 0.00 0.00 0.00 97 1009.2
20260507221524 24 122 3.2 4.8 0.00 0.00 0.00 96 1009.2
20260507220525 25 120 1.6 4.8 0.00 0.00 0.00 95 1009.2
20260507215525 25 138 1.6 3.2 0.00 0.00 0.00 94 1009.2
20260507214525 25 135 1.6 3.2 0.00 0.00 0.00 93 1009.2
20260507213525 25 128 1.6 3.2 0.00 0.00 0.00 93 1008.2
20260507212524 25 172 0.0 3.2 0.00 0.00 0.00 93 1008.2
20260507211525 25 183 1.6 3.2 0.00 0.00 0.00 93 1008.2
20260507210525 25 265 1.6 4.8 0.00 0.00 0.00 93 1008.2
20260507205524 25 260 4.8 6.4 0.00 0.00 0.00 93 1008.2
20260507204524 25 266 4.8 8.0 0.00 0.00 0.00 92 1008.2
20260507203524 25 270 6.4 9.7 0.00 0.00 0.00 92 1008.2
20260507202525 25 276 8.0 11.3 0.00 0.00 0.00 92 1008.2
20260507201525 25 267 6.4 11.3 0.00 0.00 0.00 91 1008.2
20260507200525 26 270 6.4 11.3 0.00 0.00 0.00 91 1008.2
20260507195525 26 221 6.4 9.7 0.00 0.00 0.00 90 1008.2
20260507194525 26 266 9.7 14.5 0.00 0.00 0.00 90 1008.2
20260507193525 26 272 11.3 17.7 0.00 0.00 0.00 90 1008.2
20260507192525 26 269 11.3 14.5 0.00 0.00 0.00 89 1008.2
20260507191525 26 269 9.7 14.5 0.00 0.00 0.00 89 1008.2
20260507190525 26 272 11.3 17.7 0.00 0.00 0.00 88 1008.2
20260507185525 26 261 8.0 12.9 0.00 0.00 0.00 88 1008.2
20260507184528 26 258 11.3 16.1 0.00 0.00 0.00 87 1008.4
20260507183525 26 271 8.0 14.5 0.00 0.00 0.00 87 1009.2
20260507182525 26 272 12.9 17.7 0.00 0.00 0.00 86 1009.2
20260507181527 27 273 12.9 19.3 0.00 0.00 0.00 84 1009.2
20260507180525 27 272 9.7 12.9 0.00 0.00 0.00 83 1009.2
20260507175521 27 279 6.4 8.0 0.00 0.00 0.00 82
20260507174527 27 270 6.4 8.0 0.00 0.00 0.00 82
20260507173524 27 273 6.4 9.7 0.00 0.00 0.00 82
20260507172520 27 270 9.7 11.3 0.00 0.00 0.00 81
20260507171527 28 245 4.8 9.7 0.00 0.00 0.00 78
20260507170525 28 268 9.7 12.9 0.00 0.00 0.00 78 1010.3
20260507165520 28 267 4.8 9.7 0.00 0.00 0.00 78 1010.3
20260507164526 29 220 3.2 6.4 0.00 0.00 0.00 76 1010.3
20260507163525 28 267 4.8 8.0 0.00 0.00 0.00 77 1011.3
20260507162520 29 148 1.6 6.4 0.00 0.00 0.00 76 1011.3
20260507161526 28 151 1.6 4.8 0.00 0.00 0.00 77 1011.3
20260507160525 28 121 3.2 6.4 0.00 0.00 0.00 77 1011.3
20260507155520 28 145 1.6 4.8 0.00 0.00 0.00 77
20260507154526 28 125 3.2 6.4 0.00 0.00 0.00 77
20260507153525 28 119 4.8 6.4 0.00 0.00 0.00 79
20260507152519 27 137 1.6 3.2 0.00 0.00 0.00 81
20260507151526 27 121 3.2 4.8 0.00 0.00 0.00 81
20260507150626 26 113 1.6 3.2 0.00 0.00 0.00 84
20260507145533 27 3.2 3.2 0.00 0.00 0.00 81 1013.2
20260507144526 26 119 3.2 4.8 0.00 0.00 0.00 84 1013.2
20260507143525 26 118 3.2 6.4 0.00 0.00 0.00 83 1014.2
20260507142520 26 125 4.8 6.4 0.00 0.00 0.00 85 1014.2
20260507141526 25 142 1.6 3.2 0.00 0.00 0.00 86 1014.2
20260507140525 25 137 3.2 4.8 0.00 0.00 0.00 89 1014.2
20260507135519 25 131 3.2 4.8 0.00 0.00 0.00 89 1014.2
20260507134557 -17 0.0 0.0 0.00 0.00 0.00
20260507133738 25 0.0 0.0 0.00 0.00 0.00 86 1014.2
20260507132520 25 0.0 0.0 0.00 0.00 0.00 86 1014.2
20260507131525 25 142 1.6 3.2 0.00 0.00 0.00 87 1014.2
20260507130525 25 135 0.0 3.2 0.00 0.00 0.00 87 1014.2
20260507125520 25 0.0 0.0 0.00 0.00 0.00 88 1014.2
20260507124526 25 130 1.6 3.2 0.00 0.00 0.00 88 1014.2
20260507123525 25 145 1.6 3.2 0.00 0.00 0.00 89 1014.2
20260507122520 24 0.0 0.0 0.00 0.00 0.00 91 1014.2
20260507121526 24 0.0 0.0 0.00 0.00 0.00 91 1014.2
20260507120525 24 0.0 0.0 0.00 0.00 0.00 92 1014.2
20260507115520 24 0.0 0.0 0.00 0.00 0.00 93 1014.2
20260507114526 23 0.0 0.0 0.00 0.00 0.00 94 1014.2
20260507113525 23 0.0 0.0 0.00 0.00 0.00 95 1014.2
20260507112519 23 0.0 0.0 0.00 0.00 0.00 96 1014.2
20260507111526 23 138 1.6 3.2 0.00 0.00 0.00 97
20260507110525 23 0.0 0.0 0.00 0.00 0.00 98
20260507105520 22 0.0 0.0 0.00 0.00 0.00 99
20260507104526 22 0.0 0.0 0.00 0.00 0.00 99
20260507103525 22 0.0 0.0 0.00 0.00 0.00 99
20260507102520 22 0.0 0.0 0.00 0.00 0.00 99
20260507101525 22 0.0 0.0 0.00 0.00 0.00 99 1014.2
20260507100525 22 0.0 0.0 0.00 0.00 0.00 99 1014.2
20260507095520 22 0.0 0.0 0.00 0.00 0.00 99 1014.2
20260507094526 22 0.0 0.0 0.00 0.00 0.00 99 1014.2
20260507093525 22 0.0 0.0 0.00 0.00 0.00 99 1014.2
20260507092520 22 0.0 0.0 0.00 0.00 0.00 99 1014.2
20260507091526 22 0.0 0.0 0.00 0.00 0.00 99 1014.2
20260507090525 22 0.0 0.0 0.00 0.00 0.00 99 1014.2
20260507085520 22 180 0.0 1.6 0.00 0.00 0.00 99 1014.2
20260507084525 22 0.0 0.0 0.00 0.00 0.00 99 1014.2
20260507083525 22 0.0 0.0 0.00 0.00 0.00 99 1014.2
20260507082519 22 0.0 0.0 0.00 0.00 0.00 99 1014.2
20260507081526 23 0.0 0.0 0.00 0.00 0.00 99 1014.2
20260507080525 23 0.0 0.0 0.00 0.00 0.00 99 1014.2
20260507075520 23 0.0 0.0 0.00 0.00 0.00 99 1014.2
20260507074533 -17 0.0 0.0 0.00 0.00 0.00
20260507073606 23 0.0 0.0 0.00 0.00 0.00 99 1014.2
20260507072520 23 0.0 0.0 0.00 0.00 0.00 99 1014.2
20260507071656 23 0.0 0.0 0.00 0.00 0.00 99 1014.2
20260507064141 -17 0.0 0.0 0.00 0.00 0.00
20260507063026 23 263 3.2 4.8 0.00 0.00 0.00 99 1015.2
20260507062032 23 0.0 0.0 0.00 0.00 0.00 99 1015.2
20260507061020 23 0.0 0.0 0.00 0.00 0.00 99 1015.2
20260507060021 23 0.0 0.0 0.00 0.00 0.00 99 1015.2
20260507055101 23 0.0 0.0 0.00 0.00 0.00 99 1015.2
20260507054038 23 0.0 0.0 0.00 0.00 0.00 99 1015.2
20260507053125 23 0.0 0.0 0.00 0.00 0.00 99 1016.2
20260507052444 -17 143 1.6 3.2 0.00 0.00 0.00
20260507051150 -17 0.0 0.0 0.00 0.00 0.00
20260507050245 -17 0.0 0.0 0.00 0.00 0.00
20260507045229 23 0.0 0.0 0.00 0.00 0.00 99 1016.2
20260507044030 23 0.0 0.0 0.00 0.00 0.00 99 1016.2
20260507043044 23 113 0.0 3.2 0.00 0.00 0.00 99 1016.2
20260507042108 23 0.0 0.0 0.00 0.00 0.00 99 1016.2
20260507041020 23 0.0 0.0 0.00 0.00 0.00 99 1016.2
20260507040022 -17 0.0 0.0 0.00 0.00 0.00
20260507035206 -17 0.0 0.0 0.00 0.00 0.00
20260507034029 23 0.0 0.0 0.00 0.00 0.00 99 1016.2
20260507033102 -17 0.0 0.0 0.00 0.00 0.00
20260507032350 23 0.0 0.0 0.00 0.00 0.00 99 1017.2
20260507031038 -17 0.0 0.0 0.00 0.00 0.00
20260507025325 -17 0.0 0.0 0.00 0.00 0.00
20260507024022 23 120 1.6 3.2 0.00 0.00 0.00 99 1017.2
20260507023026 23 0.0 0.0 0.00 0.00 0.00 99 1017.2
20260507022031 23 0.0 0.0 0.00 0.00 0.00 99 1017.2
20260507021020 23 135 1.6 3.2 0.00 0.00 0.00 99 1017.2
20260507020021 23 147 0.0 3.2 0.00 0.00 0.00 99 1017.2
20260507015021 23 0.0 0.0 0.00 0.00 0.00 99 1017.2
20260507014021 23 113 0.0 3.2 0.00 0.00 0.00 99 1017.2
20260507013026 23 0.0 0.0 0.00 0.00 0.00 99 1017.2
20260507012032 23 131 0.0 3.2 0.00 0.00 0.00 99 1017.2
20260507011020 23 132 1.6 3.2 0.00 0.00 0.00 99 1017.2
20260507010022 23 124 3.2 3.2 0.00 0.00 0.00 99 1017.2
20260507005022 23 121 3.2 4.8 0.00 0.00 0.00 99 1017.2